Location: Utrecht
(52.0907°N, 5.1214°E)
Time: 06:22:33
(UTC+02:00)

NANOSAT C BR1 - Pass Details

Date: 29 June 2022
Orbit: 584 x 599 km, 98.0° (Epoch: 07 August)

Event Time Altitude Azimuth Distance (km) Brightness Sun altitude
Rises 02:52:16 0° 25° (NNE) 2,848 ? -13.2°
Reaches altitude 10° 02:54:55 10° 42° (NE) 1,943 ? -13.0°
Maximum altitude 02:58:07 21° 92° (E) 1,373 ? -12.9°
Drops below altitude 10° 03:01:18 10° 141° (SE) 1,937 ? -12.7°
Enters shadow 03:02:07 - 148° (SSE) 2,194 ? -12.7°
